Tracking 28790 objects as of 19-Apr-2024
HD Live streaming from Space Station
objects crossing your sky now

COSMOS 2344

Track COSMOS 2344 now!
10-day predictions
COSMOS 2344 is classified as:


NORAD ID: 24827
Int'l Code: 1997-028A
Perigee: 1,217.5 km
Apogee: 3,039.4 km
Inclination: 63.3 °
Period: 130.0 minutes
Semi major axis: 8499 km
RCS: 20.7464 m2 (large)
Launch date: June 6, 1997
Source: Commonwealth of Independent States (former USSR) (CIS)
Launch site: TYURATAM MISSILE AND SPACE COMPLEX (TTMTR)
Your satellite tracking list
Your tracking list is empty




NASA's NSSDC Master Catalog

Two Line Element Set (TLE):
1 24827U 97028A   24109.93687194  .00000145  00000-0  21427-2 0  9990
2 24827  63.3041  89.5778 1071795  59.4208 324.5068 11.07945051 87112
Source of the keplerian elements: AFSPC